FW0153 Weather Reports


time (UTC)temp
C
wind
direction
speed
KPH
gust
KPH
rain 1hr
cm
rain 24hr
cm
rain mn
cm
humidity
%
barometer
mb
20260902215010 34 55 14.5 0.0 0.00 0.00 0.00 34 1008.6
20260902214720 34 92 37.0 0.0 0.00 0.00 0.00 33 1008.6
20260902214016 34 167 20.9 0.0 0.00 0.00 0.00 33 1008.2
20260902213726 34 84 20.9 0.0 0.00 0.00 0.00 32 1008.6
20260902213022 34 111 14.5 0.0 0.00 0.00 0.00 32 1008.6
20260902212525 34 18 29.0 0.0 0.00 0.00 0.00 33 1008.6
20260902212028 35 154 14.5 0.0 0.00 0.00 0.00 34 1008.6
20260902211531 35 117 29.0 0.0 0.00 0.00 0.00 34 1008.9
20260902211007 34 55 37.0 0.0 0.00 0.00 0.00 35 1008.9
20260902210510 35 146 14.5 0.0 0.00 0.00 0.00 35 1008.9
20260902210013 35 1 20.9 0.0 0.00 0.00 0.00 35 1008.9
20260902205724 35 191 29.0 0.0 0.00 0.00 0.00 34 1008.9
20260902205019 34 108 6.4 0.0 0.00 0.00 0.00 35 1008.9
20260902204522 35 61 20.9 0.0 0.00 0.00 0.00 35 1009.3
20260902204025 35 90 6.4 0.0 0.00 0.00 0.00 37 1009.3
20260902203510 34 139 14.5 0.0 0.00 0.00 0.00 37 1009.3
20260902203031 35 354 29.0 0.0 0.00 0.00 0.00 35 1009.3
20260902202507 35 323 14.5 0.0 0.00 0.00 0.00 36 1009.3
20260902202218 35 154 20.9 0.0 0.00 0.00 0.00 37 1009.6
20260902201513 35 171 20.9 0.0 0.00 0.00 0.00 36 1009.6
20260902201016 35 142 14.5 0.0 0.00 0.00 0.00 37 1009.6
20260902200727 35 136 6.4 0.0 0.00 0.00 0.00 36 1009.6
20260902200022 35 177 14.5 0.0 0.00 0.00 0.00 37 1009.9
20260902195525 35 230 6.4 0.0 0.00 0.00 0.00 38 1009.9
20260902195236 35 154 20.9 0.0 0.00 0.00 0.00 36 1009.9
20260902194531 34 41 29.0 0.0 0.00 0.00 0.00 36 1009.9
20260902194214 34 23 20.9 0.0 0.00 0.00 0.00 38 1010.3
20260902193510 33 163 29.0 0.0 0.00 0.00 0.00 38 1010.3
20260902193013 34 110 14.5 0.0 0.00 0.00 0.00 37 1010.3
20260902192723 35 137 6.4 0.0 0.00 0.00 0.00 36 1010.3
20260902192019 35 160 14.5 0.0 0.00 0.00 0.00 37 1010.3
20260902191522 34 111 6.4 0.0 0.00 0.00 0.00 37 1010.3
20260902191025 34 53 20.9 0.0 0.00 0.00 0.00 38 1010.6
20260902190735 34 201 6.4 0.0 0.00 0.00 0.00 38 1011.0
20260902190031 33 139 6.4 0.0 0.00 0.00 0.00 40 1011.0
20260902185507 33 92 29.0 0.0 0.00 0.00 0.00 39 1011.0
20260902185010 34 126 6.4 0.0 0.00 0.00 0.00 40 1011.0
20260902184513 33 100 14.5 0.0 0.00 0.00 0.00 42 1011.3
20260902184016 33 68 14.5 0.0 0.00 0.00 0.00 41 1011.3
20260902183519 33 146 37.0 0.0 0.00 0.00 0.00 41 1011.3
20260902183022 33 150 14.5 0.0 0.00 0.00 0.00 43 1011.3
20260902182733 33 88 20.9 0.0 0.00 0.00 0.00 40 1011.3
20260902182028 33 20 14.5 0.0 0.00 0.00 0.00 42 1011.3
20260902181531 33 37 14.5 0.0 0.00 0.00 0.00 43 1011.6
20260902181215 33 158 6.4 0.0 0.00 0.00 0.00 42 1011.6
20260902180507 33 131 29.0 0.0 0.00 0.00 0.00 41 1011.6
20260902180013 33 150 6.4 0.0 0.00 0.00 0.00 44 1012.0
20260902175505 32 156 20.9 0.0 0.00 0.00 0.00 42 1012.0
20260902175005 33 33 20.9 0.0 0.00 0.00 0.00 43 1012.0
20260902174505 33 99 20.9 0.0 0.00 0.00 0.00 44 1012.3
20260902174005 32 154 37.0 0.0 0.00 0.00 0.00 45 1012.3
20260902173712 32 53 14.5 0.0 0.00 0.00 0.00 44 1012.3
20260902173005 32 79 20.9 0.0 0.00 0.00 0.00 45 1012.3
20260902172505 32 164 43.5 0.0 0.00 0.00 0.00 45 1012.3
20260902172005 32 163 6.4 0.0 0.00 0.00 0.00 47 1012.3
20260902171505 32 94 29.0 0.0 0.00 0.00 0.00 47 1012.3
20260902171005 32 238 6.4 0.0 0.00 0.00 0.00 48 1012.3
20260902170712 31 105 37.0 0.0 0.00 0.00 0.00 49 1012.7
20260902170005 31 157 37.0 0.0 0.00 0.00 0.00 49 1012.7
20260902165712 31 154 14.5 0.0 0.00 0.00 0.00 51 1012.7
20260902165005 32 172 6.4 0.0 0.00 0.00 0.00 49 1012.7
20260902164505 31 105 20.9 0.0 0.00 0.00 0.00 52 1013.0
20260902164005 31 159 29.0 0.0 0.00 0.00 0.00 52 1013.0
20260902163504 31 212 20.9 0.0 0.00 0.00 0.00 52 1013.0
20260902163005 31 139 20.9 0.0 0.00 0.00 0.00 54 1013.0
20260902162712 31 111 14.5 0.0 0.00 0.00 0.00 56 1013.3
20260902162005 31 122 20.9 0.0 0.00 0.00 0.00 55 1013.0
20260902161505 31 154 20.9 0.0 0.00 0.00 0.00 54 1013.0
20260902161005 31 215 20.9 0.0 0.00 0.00 0.00 55 1013.3
20260902160505 30 161 20.9 0.0 0.00 0.00 0.00 58 1013.3
20260902160007 30 171 37.0 0.0 0.00 0.00 0.00 58 1013.0
20260902155505 30 72 51.5 0.0 0.00 0.00 0.00 57 1013.3
20260902155005 30 119 29.0 0.0 0.00 0.00 0.00 58 1013.3
20260902154505 30 139 6.4 0.0 0.00 0.00 0.00 60 1013.0
20260902154004 30 158 20.9 0.0 0.00 0.00 0.00 60 1013.3
20260902153505 30 125 6.4 0.0 0.00 0.00 0.00 62 1013.0
20260902153005 29 148 43.5 0.0 0.00 0.00 0.00 63 1013.3
20260902152505 28 103 20.9 0.0 0.00 0.00 0.00 64 1013.0
20260902152005 28 176 14.5 0.0 0.00 0.00 0.00 65 1013.0
20260902151711 28 92 20.9 0.0 0.00 0.00 0.00 66 1013.3
20260902151005 28 127 6.4 0.0 0.00 0.00 0.00 67 1013.3
20260902150505 28 197 29.0 0.0 0.00 0.00 0.00 67 1013.0
20260902150005 28 42 37.0 0.0 0.00 0.00 0.00 68 1013.0
20260902145505 28 141 29.0 0.0 0.00 0.00 0.00 69 1013.3
20260902145005 28 166 29.0 0.0 0.00 0.00 0.00 69 1013.3
20260902144504 28 156 14.5 0.0 0.00 0.00 0.00 71 1013.0
20260902144005 28 155 51.5 0.0 0.00 0.00 0.00 71 1013.0
20260902143505 27 134 14.5 0.0 0.00 0.00 0.00 74 1013.3
20260902143005 27 57 6.4 0.0 0.00 0.00 0.00 75 1013.0
20260902142713 27 170 20.9 0.0 0.00 0.00 0.00 75 1013.0
20260902142212 27 162 6.4 0.0 0.00 0.00 0.00 76 1013.3
20260902141505 27 165 14.5 0.0 0.00 0.00 0.00 76 1013.3
20260902141212 27 192 29.0 0.0 0.00 0.00 0.00 76 1013.3
20260902140505 27 164 20.9 0.0 0.00 0.00 0.00 77 1013.0
20260902140212 27 168 20.9 0.0 0.00 0.00 0.00 78 1013.3
20260902135713 26 158 20.9 0.0 0.00 0.00 0.00 80 1013.3
20260902135005 26 194 20.9 0.0 0.00 0.00 0.00 80 1013.0
20260902134505 26 167 20.9 0.0 0.00 0.00 0.00 81 1013.3
20260902134005 26 54 20.9 0.0 0.00 0.00 0.00 81 1013.0
20260902133505 26 114 6.4 0.0 0.00 0.00 0.00 82 1013.0
20260902133005 26 139 20.9 0.0 0.00 0.00 0.00 82 1012.7
20260902132504 26 106 14.5 0.0 0.00 0.00 0.00 82 1013.0
20260902132214 26 165 14.5 0.0 0.00 0.00 0.00 83 1013.0
20260902131504 26 131 0.0 0.0 0.00 0.00 0.00 83 1013.0
20260902131005 26 143 6.4 0.0 0.00 0.00 0.00 84 1012.7
20260902130505 26 47 14.5 0.0 0.00 0.00 0.00 84 1013.0
20260902130005 25 52 6.4 0.0 0.00 0.00 0.00 84 1013.0
20260902125505 25 5 0.0 0.0 0.00 0.00 0.00 85 1012.7
20260902125005 25 104 0.0 0.0 0.00 0.00 0.00 85 1012.7
20260902124505 25 113 0.0 0.0 0.00 0.00 0.00 85 1012.3
20260902124005 25 32 0.0 0.0 0.00 0.00 0.00 85 1012.3
20260902123505 25 166 14.5 0.0 0.00 0.00 0.00 85 1012.3
20260902123213 25 89 6.4 0.0 0.00 0.00 0.00 85 1012.3
20260902122712 25 153 6.4 0.0 0.00 0.00 0.00 85 1012.3
20260902122005 25 174 29.0 0.0 0.00 0.00 0.00 85 1012.3
20260902121505 25 109 0.0 0.0 0.00 0.00 0.00 85 1012.3
20260902121005 25 131 6.4 0.0 0.00 0.00 0.00 85 1012.3
20260902120712 25 58 0.0 0.0 0.00 0.00 0.00 85 1012.3
20260902120005 25 93 0.0 0.0 0.00 0.00 0.00 84 1012.3
20260902115505 25 158 20.9 0.0 0.00 0.00 0.00 85 1012.3
20260902115005 25 124 6.4 0.0 0.00 0.00 0.00 84 1012.3
20260902114505 25 49 0.0 0.0 0.00 0.00 0.00 84 1012.3
20260902114213 25 137 0.0 0.0 0.00 0.00 0.00 84 1012.3
20260902113505 25 79 0.0 0.0 0.00 0.00 0.00 85 1012.3
20260902113005 25 151 6.4 0.0 0.00 0.00 0.00 84 1012.3
20260902112505 25 144 20.9 0.0 0.00 0.00 0.00 84 1012.3
20260902112005 25 179 6.4 0.0 0.00 0.00 0.00 84 1012.3
20260902111504 25 145 0.0 0.0 0.00 0.00 0.00 84 1012.3
20260902111213 25 106 0.0 0.0 0.00 0.00 0.00 84 1012.0
20260902110505 25 138 0.0 0.0 0.00 0.00 0.00 84 1012.3
20260902110007 25 108 0.0 0.0 0.00 0.00 0.00 84 1012.0
20260902105505 25 48 14.5 0.0 0.00 0.00 0.00 84 1012.3
20260902105005 25 114 6.4 0.0 0.00 0.00 0.00 83 1012.3
20260902104505 26 107 0.0 0.0 0.00 0.00 0.00 83 1012.3
20260902104005 25 66 6.4 0.0 0.00 0.00 0.00 83 1012.0
20260902103505 25 181 20.9 0.0 0.00 0.00 0.00 83 1012.3
20260902103004 25 152 6.4 0.0 0.00 0.00 0.00 83 1012.0
20260902102505 25 66 0.0 0.0 0.00 0.00 0.00 83 1012.3
20260902102005 26 66 6.4 0.0 0.00 0.00 0.00 83 1012.0
20260902101505 26 74 6.4 0.0 0.00 0.00 0.00 82 1012.0
20260902101005 26 139 6.4 0.0 0.00 0.00 0.00 82 1012.3
20260902100505 26 131 14.5 0.0 0.00 0.00 0.00 82 1012.3
20260902100005 26 138 14.5 0.0 0.00 0.00 0.00 82 1012.0
20260902095505 26 66 29.0 0.0 0.00 0.00 0.00 82 1012.0
20260902095005 26 77 6.4 0.0 0.00 0.00 0.00 82 1012.3
20260902094505 26 127 6.4 0.0 0.00 0.00 0.00 82 1012.0
20260902094004 26 81 20.9 0.0 0.00 0.00 0.00 82 1012.3
20260902093505 26 145 6.4 0.0 0.00 0.00 0.00 82 1012.3
20260902093005 26 100 14.5 0.0 0.00 0.00 0.00 82 1012.3
20260902092505 26 110 0.0 0.0 0.00 0.00 0.00 81 1012.3
20260902092005 26 116 6.4 0.0 0.00 0.00 0.00 81 1012.3
20260902091711 26 82 14.5 0.0 0.00 0.00 0.00 81 1012.3
20260902091005 26 176 29.0 0.0 0.00 0.00 0.00 81 1012.3
20260902090711 26 132 6.4 0.0 0.00 0.00 0.00 81 1012.3
20260902090005 26 101 14.5 0.0 0.00 0.00 0.00 81 1012.3
20260902085505 26 164 14.5 0.0 0.00 0.00 0.00 81 1012.3
20260902085005 26 198 20.9 0.0 0.00 0.00 0.00 80 1012.3
20260902084505 26 112 20.9 0.0 0.00 0.00 0.00 80 1012.3
20260902084005 26 160 20.9 0.0 0.00 0.00 0.00 80 1012.3
20260902083505 26 192 14.5 0.0 0.00 0.00 0.00 80 1012.3
20260902083005 26 144 6.4 0.0 0.00 0.00 0.00 80 1012.3
20260902082505 26 136 6.4 0.0 0.00 0.00 0.00 80 1012.3
20260902081005 26 141 14.5 0.0 0.00 0.00 0.00 80 1012.3
20260902080713 26 127 20.9 0.0 0.00 0.00 0.00 80 1012.3
20260902080004 26 170 14.5 0.0 0.00 0.00 0.00 80 1012.3
20260902075505 26 162 6.4 0.0 0.00 0.00 0.00 80 1012.7
20260902075005 26 175 20.9 0.0 0.00 0.00 0.00 80 1013.0
20260902074505 26 163 14.5 0.0 0.00 0.00 0.00 80 1012.7
20260902074005 26 142 6.4 0.0 0.00 0.00 0.00 80 1012.7
20260902073505 26 144 20.9 0.0 0.00 0.00 0.00 80 1012.7
20260902073005 26 331 14.5 0.0 0.00 0.00 0.00 80 1012.7
20260902072505 26 167 14.5 0.0 0.00 0.00 0.00 80 1013.0
20260902072005 26 48 6.4 0.0 0.00 0.00 0.00 80 1013.0
20260902071712 26 134 6.4 0.0 0.00 0.00 0.00 80 1013.0
20260902071211 26 141 6.4 0.0 0.00 0.00 0.00 80 1013.0
20260902070505 26 8 29.0 0.0 0.00 0.00 0.00 80 1013.0
20260902070006 26 80 6.4 0.0 0.00 0.00 0.00 79 1013.0
20260902065505 26 93 6.4 0.0 0.00 0.00 0.00 79 1013.0
20260902065005 26 69 14.5 0.0 0.00 0.00 0.00 80 1013.0
20260902064505 26 138 14.5 0.0 0.00 0.00 0.00 79 1013.3
20260902064213 26 158 6.4 0.0 0.00 0.00 0.00 79 1013.3
20260902063505 26 149 20.9 0.0 0.00 0.00 0.00 79 1013.3
20260902063005 26 135 6.4 0.0 0.00 0.00 0.00 79 1013.3
20260902062505 26 108 6.4 0.0 0.00 0.00 0.00 79 1013.0
20260902062213 26 269 14.5 0.0 0.00 0.00 0.00 79 1013.3
20260902061004 26 133 6.4 0.0 0.00 0.00 0.00 79 1013.0
20260902060505 26 94 14.5 0.0 0.00 0.00 0.00 79 1013.0
20260902060005 26 111 6.4 0.0 0.00 0.00 0.00 79 1013.3
20260902055505 26 78 6.4 0.0 0.00 0.00 0.00 79 1013.3
20260902055005 26 138 0.0 0.0 0.00 0.00 0.00 79 1013.3
20260902054505 26 1 14.5 0.0 0.00 0.00 0.00 79 1013.3
20260902054005 26 355 14.5 0.0 0.00 0.00 0.00 79 1013.3
20260902053505 26 124 6.4 0.0 0.00 0.00 0.00 79 1013.3
20260902053005 26 147 6.4 0.0 0.00 0.00 0.00 79 1013.3
20260902052505 26 105 20.9 0.0 0.00 0.00 0.00 79 1013.3
20260902052005 26 83 6.4 0.0 0.00 0.00 0.00 79 1013.3
20260902051505 26 42 37.0 0.0 0.00 0.00 0.00 79 1013.3
20260902051005 26 204 14.5 0.0 0.00 0.00 0.00 79 1013.3
20260902050505 26 88 14.5 0.0 0.00 0.00 0.00 78 1013.3
20260902045713 26 135 6.4 0.0 0.00 0.00 0.00 78 1013.3
20260902045004 26 114 14.5 0.0 0.00 0.00 0.00 78 1013.3
20260902044505 26 117 20.9 0.0 0.00 0.00 0.00 78 1013.3
20260902044005 26 82 20.9 0.0 0.00 0.00 0.00 78 1013.3
20260902043505 26 110 14.5 0.0 0.00 0.00 0.00 78 1013.3
20260902043005 26 57 6.4 0.0 0.00 0.00 0.00 77 1013.3
20260902042505 26 162 29.0 0.0 0.00 0.00 0.00 77 1013.3
20260902042005 26 189 43.5 0.0 0.00 0.00 0.00 77 1013.3
20260902041505 26 124 0.0 0.0 0.00 0.00 0.00 76 1013.3
20260902041005 26 156 6.4 0.0 0.00 0.00 0.00 76 1013.3
20260902040504 26 73 14.5 0.0 0.00 0.00 0.00 76 1013.3
20260902040005 26 70 20.9 0.0 0.00 0.00 0.00 76 1013.0
20260902035505 26 56 14.5 0.0 0.00 0.00 0.00 76 1013.0
20260902035005 26 23 14.5 0.0 0.00 0.00 0.00 76 1013.0
20260902034505 26 148 14.5 0.0 0.00 0.00 0.00 76 1012.7
20260902034212 26 58 20.9 0.0 0.00 0.00 0.00 76 1013.3
20260902033505 27 191 20.9 0.0 0.00 0.00 0.00 75 1012.7
20260902033005 27 123 6.4 0.0 0.00 0.00 0.00 75 1013.0
20260902032505 27 57 20.9 0.0 0.00 0.00 0.00 74 1012.7
20260902032005 27 103 37.0 0.0 0.00 0.00 0.00 74 1012.7
20260902031505 27 71 6.4 0.0 0.00 0.00 0.00 74 1012.7
20260902031005 27 52 6.4 0.0 0.00 0.00 0.00 74 1012.3
20260902030505 27 41 6.4 0.0 0.00 0.00 0.00 73 1012.3
20260902030004 27 95 29.0 0.0 0.00 0.00 0.00 73 1012.3
20260902025505 27 69 37.0 0.0 0.00 0.00 0.00 72 1012.3
20260902025005 27 133 29.0 0.0 0.00 0.00 0.00 72 1012.3
20260902024505 27 184 14.5 0.0 0.00 0.00 0.00 71 1011.6
20260902024005 27 87 14.5 0.0 0.00 0.00 0.00 71 1011.6
20260902023505 27 195 20.9 0.0 0.00 0.00 0.00 70 1011.6
20260902023005 27 74 14.5 0.0 0.00 0.00 0.00 70 1011.6
20260902022505 28 28 20.9 0.0 0.00 0.00 0.00 69 1011.6
20260902022005 28 62 14.5 0.0 0.00 0.00 0.00 68 1011.6
20260902021505 28 62 29.0 0.0 0.00 0.00 0.00 67 1011.3
20260902021005 28 16 6.4 0.0 0.00 0.00 0.00 66 1011.3
20260902020505 28 67 20.9 0.0 0.00 0.00 0.00 64 1011.0
20260902020005 28 125 6.4 0.0 0.00 0.00 0.00 63 1011.3
20260902015505 28 24 14.5 0.0 0.00 0.00 0.00 63 1011.0
20260902015005 28 230 20.9 0.0 0.00 0.00 0.00 62 1011.0
20260902014504 28 36 20.9 0.0 0.00 0.00 0.00 61 1010.6
20260902014005 28 135 6.4 0.0 0.00 0.00 0.00 59 1010.6
20260902013505 28 26 20.9 0.0 0.00 0.00 0.00 59 1010.6
20260902013005 29 62 20.9 0.0 0.00 0.00 0.00 58 1010.3
20260902012505 29 61 37.0 0.0 0.00 0.00 0.00 56 1010.6
20260902012005 29 62 6.4 0.0 0.00 0.00 0.00 56 1010.6
20260902011505 29 148 14.5 0.0 0.00 0.00 0.00 54 1010.6
20260902011005 30 84 14.5 0.0 0.00 0.00 0.00 53 1010.3
20260902010712 30 68 6.4 0.0 0.00 0.00 0.00 53 1010.3
20260902010005 30 85 43.5 0.0 0.00 0.00 0.00 52 1010.3
20260902005505 30 108 14.5 0.0 0.00 0.00 0.00 51 1010.3
20260902005005 30 112 14.5 0.0 0.00 0.00 0.00 51 1009.9
20260902004505 30 76 14.5 0.0 0.00 0.00 0.00 50 1009.9
20260902004213 30 75 20.9 0.0 0.00 0.00 0.00 49 1009.9
20260902003712 30 72 20.9 0.0 0.00 0.00 0.00 48 1009.9
20260902003213 30 147 37.0 0.0 0.00 0.00 0.00 46 1009.6
20260902002505 31 69 6.4 0.0 0.00 0.00 0.00 44 1009.6
20260902002213 31 54 14.5 0.0 0.00 0.00 0.00 44 1009.6
20260902001505 31 40 20.9 0.0 0.00 0.00 0.00 44 1009.6
20260902001005 31 43 14.5 0.0 0.00 0.00 0.00 43 1009.6
20260902000711 31 64 14.5 0.0 0.00 0.00 0.00 41 1009.6
20260902000213 31 88 20.9 0.0 0.00 0.00 0.00 40 1009.3
20260901235505 31 59 14.5 0.0 0.00 0.00 0.00 39 1009.3
20260901235005 31 108 14.5 0.0 0.00 0.00 0.00 39 1009.3
20260901234505 31 64 29.0 0.0 0.00 0.00 0.00 38 1009.3
20260901234005 31 74 20.9 0.0 0.00 0.00 0.00 38 1009.3
20260901233713 32 122 14.5 0.0 0.00 0.00 0.00 38 1009.3
20260901233213 32 138 14.5 0.0 0.00 0.00 0.00 38 1008.9
20260901232505 32 76 6.4 0.0 0.00 0.00 0.00 37 1009.3
20260901232005 32 191 14.5 0.0 0.00 0.00 0.00 37 1008.9
20260901231505 32 42 29.0 0.0 0.00 0.00 0.00 37 1009.3
20260901231005 33 100 29.0 0.0 0.00 0.00 0.00 37 1008.9
20260901230505 33 21 6.4 0.0 0.00 0.00 0.00 37 1009.3
20260901230212 33 137 14.5 0.0 0.00 0.00 0.00 37 1008.9
20260901225505 33 81 20.9 0.0 0.00 0.00 0.00 36 1008.9
20260901225004 33 75 20.9 0.0 0.00 0.00 0.00 36 1008.9
20260901224505 33 24 20.9 0.0 0.00 0.00 0.00 37 1008.9
20260901224005 33 65 14.5 0.0 0.00 0.00 0.00 36 1008.9
20260901223505 33 114 29.0 0.0 0.00 0.00 0.00 37 1008.9
20260901223006 33 128 20.9 0.0 0.00 0.00 0.00 36 1008.9
20260901222505 33 149 6.4 0.0 0.00 0.00 0.00 35 1008.9
20260901222005 33 149 20.9 0.0 0.00 0.00 0.00 35 1008.9
20260901221505 33 137 14.5 0.0 0.00 0.00 0.00 35 1008.9
20260901221005 33 113 29.0 0.0 0.00 0.00 0.00 35 1008.9
20260901220505 33 58 14.5 0.0 0.00 0.00 0.00 35 1009.3
20260901220005 34 41 6.4 0.0 0.00 0.00 0.00 34 1008.9
20260901215713 33 174 14.5 0.0 0.00 0.00 0.00 34 1009.3